[[{"header":{"parameterUnit":"m.s-1","parameterCategory":1,"la1":30.2991,"la2":30.254,"lo1":-89.0895,"lo2":-89.0444,"dy":0.0017,"dx":0.0017,"nx":28,"ny":28,"refTime":"2025-09-17T09:00:00:Z","depth":0,"parameterNumber":2,"parameterNumberName":"U-component_of_WINDS"},"data":[0,0,0,0,0,0,0,0,0,0,0,0,0,0,0,0,0,0,0,0,0,0,0,0,0,0,0,0,0,0,0,0,0,0,0,0,0,0,0,0,0,0,0,0,0,0,0,0,0,0,0,0,0,0,0,0,0,0,0.4185,0.4185,0,0.4175,0.4175,0.4175,0.419,0.4191,0.4191,0.4192,0.4178,0.4178,0.4177,0,0,0,0,0,0,0,0,0,0,0,0,0,0.4216,0.4215,0.4186,0.4185,0.4185,0.4175,0.4175,0.4175,0.419,0.4191,0.4191,0.4192,0.4179,0.4178,0.4177,0,0,0,0,0,0,0,0,0,0,0,0,0,0.4204,0.4215,0.4186,0.4192,0.4192,0.4175,0.4175,0.4175,0.419,0.4191,0.4192,0.4192,0.4179,0.4178,0.4176,0.4152,0,0,0.4172,0.4172,0,0,0,0,0,0,0,0,0.4205,0.4203,0.4191,0.4191,0.4192,0.4185,0.4181,0.4167,0.419,0.4191,0.4192,0.4193,0.418,0.4178,0.4174,0.4151,0.4151,0.4172,0.4172,0.4171,0.4171,0,0,0,0,0,0,0,0.4205,0.4203,0.4181,0.4191,0.4191,0.4194,0.4193,0.4178,0.4181,0.4191,0.4192,0.419,0.418,0.4176,0.4174,0.415,0.4172,0.4171,0.417,0.417,0.4104,0.4103,0,0,0,0,0,0,0.4206,0.4204,0.4182,0.4181,0.42,0.4193,0.4192,0.4186,0.4181,0.4181,0.419,0.4191,0.4178,0.4176,0.4174,0.4143,0.4171,0.417,0.4169,0.4105,0.4104,0.4103,0,0,0,0,0,0,0.4206,0.4204,0.4182,0.4193,0.419,0.4192,0.4185,0.4185,0.4181,0.418,0.418,0.4185,0.4178,0.4176,0.4157,0.4143,0.4169,0.4168,0.4106,0.4105,0.4103,0.4082,0,0,0,0,0,0,0.4207,0.4204,0.4195,0.4192,0.419,0.4166,0.4184,0.4185,0.4179,0.4181,0.4176,0.4176,0.4179,0.4159,0.4156,0.4141,0.4167,0.4107,0.4106,0.4104,0.4084,0.408,0.4076,0,0,0,0,0,0.4208,0.4189,0.4195,0.4192,0.4179,0.4165,0.4163,0.4168,0.4178,0.4169,0.4168,0.4176,0.4145,0.4157,0.4153,0.4138,0.4108,0.4106,0.4104,0.4085,0.4081,0.4077,0,0,0,0,0,0,0.419,0.4189,0.4195,0.4175,0.417,0.4168,0.4156,0.4163,0.4154,0.4156,0.4162,0.416,0.414,0.4138,0.415,0.4113,0.4128,0.4125,0.4115,0.4111,0.4107,0.4107,0.4166,0,0,0,0,0,0.4184,0.4174,0.4173,0.4155,0.4153,0.4155,0.4149,0.4153,0.4148,0.4146,0.4144,0.4137,0.4126,0.4119,0.4108,0.4084,0.4082,0.4072,0.4068,0.4065,0.4062,0.4047,0.4042,0.4096,0.4096,0.4096,0,0,0.417,0.4169,0.4162,0.4152,0.4148,0.4136,0.4153,0.414,0.4131,0.4143,0.4125,0.4123,0.4117,0.4094,0.4085,0.4092,0.4047,0.4063,0.406,0.4059,0.4044,0.4039,0.4035,0.4094,0.4095,0.4095,0,0,0.4139,0.4138,0.4122,0.4119,0.4114,0.4115,0.4111,0.4108,0.4107,0.4089,0.4098,0.4087,0.4068,0.4062,0.4057,0.4023,0.4029,0.402,0.4,0.3985,0.3981,0.3977,0.3963,0.3958,0.4017,0.4017,0.4017,0,0.4123,0.4107,0.4113,0.4099,0.4094,0.4105,0.4088,0.4084,0.4076,0.4071,0.408,0.4055,0.4052,0.4028,0.4019,0.4015,0.4009,0.402,0.3981,0.3977,0.3974,0.396,0.3955,0.4016,0.4016,0.4016,0.4016,0,0.4086,0.4074,0.4062,0.4053,0.4047,0.4031,0.4034,0.4027,0.4031,0.4031,0.4012,0.4008,0.3996,0.3991,0.3995,0.3967,0.3971,0.3981,0.3995,0.3967,0.3955,0.395,0.4014,0.4014,0.4015,0.4015,0,0,0.4042,0.4038,0.4033,0.4029,0.4024,0.4014,0.3999,0.3988,0.398,0.3974,0.396,0.3944,0.3952,0.3946,0.3949,0.3936,0.3907,0.3947,0.3947,0.3938,0.3873,0.3864,0.3859,0.3912,0.3911,0.3911,0.3873,0,0.401,0.3984,0.3989,0.3963,0.3951,0.3962,0.3948,0.3943,0.3943,0.3932,0.3931,0.3918,0.3931,0.3927,0.3915,0.3913,0.3894,0.3916,0.3897,0.3896,0.3896,0.3852,0.3844,0.3808,0.3868,0.3867,0.3867,0,0.3969,0.3961,0.3934,0.393,0.3925,0.3913,0.3902,0.3892,0.3886,0.3887,0.3879,0.3885,0.3868,0.3884,0.386,0.3875,0.3867,0.3865,0.3864,0.3861,0.3878,0.3846,0.3797,0.3791,0.3859,0.386,0.3861,0,0.3937,0.392,0.3901,0.3898,0.3893,0.3884,0.3881,0.3876,0.3868,0.3859,0.3854,0.3843,0.3836,0.3827,0.3829,0.3841,0.3803,0.382,0.3801,0.3801,0.3791,0.3791,0.3738,0.379,0.379,0.379,0.379,0,0.3899,0.3882,0.3887,0.3875,0.3855,0.3861,0.3841,0.3839,0.3834,0.3821,0.383,0.3818,0.3822,0.3809,0.381,0.3788,0.3786,0.3784,0.3784,0.3782,0.3782,0.3776,0.3777,0.3788,0.3789,0.3789,0.3789,0,0.386,0.3863,0.3843,0.384,0.3839,0.3824,0.3821,0.3809,0.3809,0.3793,0.3789,0.3789,0.3774,0.3776,0.3759,0.376,0.3732,0.3736,0.3734,0.3734,0.3714,0.3715,0.3654,0.3645,0.3704,0.3704,0.3703,0,0.3835,0.3821,0.3817,0.3809,0.3806,0.3794,0.3786,0.3791,0.3783,0.3774,0.3763,0.3749,0.3738,0.3713,0.3711,0.3698,0.37,0.368,0.3698,0.3696,0.3697,0.3697,0.3695,0.3676,0.3675,0.3674,0.3674,0,0.3789,0.3791,0.378,0.377,0.3761,0.3753,0.3746,0.3739,0.3743,0.3733,0.3718,0.3709,0.3692,0.3677,0.3665,0.3661,0.3667,0.3668,0.3663,0.3659,0.3658,0.3656,0.3722,0.3669,0.367,0.367,0.367,0.3671,0.3754,0.3742,0.3737,0.3724,0.372,0.3712,0.3701,0.37,0.3688,0.3675,0.3678,0.3661,0.3653,0.3637,0.3632,0.3617,0.3624,0.3617,0.3615,0.3612,0.3609,0.3662,0.3615,0.3615,0.3615,0.3615,0.3616,0,0.3707,0.3704,0.3693,0.3682,0.3672,0.3681,0.3673,0.3663,0.3648,0.3641,0.363,0.3612,0.3598,0.3594,0.358,0.3569,0.3571,0.3565,0.3564,0.3563,0.3604,0.3609,0.3563,0.3563,0.3563,0.3563,0.3563,0.3563,0.368,0.366,0.3661,0.3638,0.3635,0.3619,0.3613,0.3606,0.36,0.358,0.3568,0.3567,0.3561,0.3546,0.3532,0.3531,0.3525,0.3516,0.3516,0.3555,0.356,0.3565,0.357,0.3515,0.3515,0.3476,0.3475,0.3475]},{"header":{"parameterUnit":"m.s-1","parameterCategory":1,"la1":30.2991,"la2":30.254,"lo1":-89.0895,"lo2":-89.0444,"dy":0.0017,"dx":0.0017,"nx":28,"ny":28,"refTime":"2025-09-17T09:00:00:Z","depth":0,"parameterNumber":3,"parameterNumberName":"V-component_of_WINDS"},"data":[0,0,0,0,0,0,0,0,0,0,0,0,0,0,0,0,0,0,0,0,0,0,0,0,0,0,0,0,0,0,0,0,0,0,0,0,0,0,0,0,0,0,0,0,0,0,0,0,0,0,0,0,0,0,0,0,0,0,3.2388,3.2388,0,3.2405,3.2405,3.2405,3.2366,3.2365,3.2363,3.2362,3.2377,3.2379,3.238,0,0,0,0,0,0,0,0,0,0,0,0,0,3.232,3.2322,3.2388,3.2388,3.2388,3.2405,3.2405,3.2405,3.2366,3.2365,3.2363,3.2362,3.2377,3.2379,3.238,0,0,0,0,0,0,0,0,0,0,0,0,0,3.2344,3.2322,3.2388,3.2371,3.237,3.2405,3.2405,3.2405,3.2366,3.2365,3.2363,3.2361,3.2376,3.2378,3.2381,3.2432,0,0,3.2388,3.2389,0,0,0,0,0,0,0,0,3.2343,3.2347,3.2373,3.2372,3.2371,3.2381,3.2386,3.2414,3.2367,3.2368,3.2362,3.236,3.238,3.2382,3.2389,3.2433,3.2434,3.2388,3.2389,3.239,3.2391,0,0,0,0,0,0,0,3.2341,3.2346,3.2394,3.2374,3.2372,3.2362,3.2363,3.2391,3.2384,3.2367,3.2365,3.2367,3.2379,3.2387,3.2389,3.2434,3.2388,3.239,3.2391,3.2392,3.2519,3.2521,0,0,0,0,0,0,3.2342,3.2345,3.2394,3.2395,3.2352,3.2364,3.2366,3.238,3.2384,3.2382,3.2369,3.2365,3.2384,3.2386,3.2389,3.2448,3.239,3.2393,3.2394,3.2517,3.2519,3.2521,0,0,0,0,0,0,3.2341,3.2347,3.2393,3.2369,3.2374,3.2368,3.2383,3.2381,3.2389,3.2385,3.2383,3.2378,3.2382,3.2386,3.2422,3.2448,3.2394,3.2396,3.2514,3.2517,3.252,3.2567,0,0,0,0,0,0,3.2339,3.2347,3.2367,3.237,3.2376,3.2426,3.2385,3.2383,3.2393,3.2389,3.2393,3.2392,3.2381,3.2418,3.2424,3.245,3.2398,3.2512,3.2516,3.2519,3.2563,3.2571,3.2578,0,0,0,0,0,3.2337,3.2379,3.2368,3.2374,3.2401,3.2428,3.2431,3.2418,3.2396,3.2415,3.2412,3.2392,3.2445,3.2422,3.2428,3.2456,3.251,3.2515,3.2519,3.256,3.257,3.2578,0,0,0,0,0,0,3.2379,3.238,3.2367,3.2412,3.242,3.2421,3.2445,3.2429,3.2444,3.2439,3.2422,3.2423,3.2461,3.2462,3.2437,3.2505,3.2474,3.2479,3.2502,3.2512,3.2519,3.2517,3.2399,0,0,0,0,0,3.2394,3.2416,3.2415,3.2455,3.246,3.2452,3.2463,3.2453,3.246,3.2463,3.2463,3.247,3.2488,3.2501,3.2517,3.2564,3.2563,3.2586,3.2593,3.26,3.2604,3.2627,3.2636,3.2536,3.2536,3.2536,0,0,3.2424,3.2427,3.2442,3.2464,3.2469,3.2491,3.2455,3.2481,3.2497,3.2467,3.25,3.25,3.2507,3.2548,3.2566,3.255,3.2632,3.2605,3.261,3.2611,3.2632,3.2642,3.265,3.2539,3.2538,3.2538,0,0,3.249,3.2496,3.2528,3.2534,3.2542,3.2537,3.2545,3.2548,3.2547,3.258,3.2558,3.2577,3.2609,3.2614,3.2621,3.2689,3.267,3.2695,3.2734,3.2756,3.2764,3.2771,3.2793,3.2802,3.27,3.27,3.27,0,3.2526,3.256,3.2547,3.2574,3.2583,3.2558,3.259,3.2596,3.2609,3.2616,3.2598,3.2637,3.264,3.2681,3.2698,3.2705,3.2712,3.2693,3.2764,3.2771,3.2777,3.2798,3.2807,3.2703,3.2703,3.2702,3.2702,0,3.2603,3.2626,3.2652,3.2665,3.2678,3.2707,3.2698,3.2712,3.27,3.2696,3.273,3.2733,3.2749,3.2758,3.2747,3.2797,3.2787,3.2767,3.2735,3.279,3.2809,3.2817,3.2707,3.2706,3.2705,3.2704,0,0,3.2695,3.2701,3.271,3.2715,3.2722,3.274,3.2768,3.2784,3.2795,3.2805,3.2827,3.2855,3.2836,3.2844,3.2834,3.2854,3.2905,3.2832,3.2832,3.2843,3.2958,3.2971,3.298,3.2894,3.2895,3.2897,3.2956,0,3.2758,3.2806,3.2795,3.2842,3.2863,3.2839,3.2863,3.287,3.2867,3.2883,3.288,3.2899,3.2875,3.2879,3.2898,3.2895,3.2928,3.2891,3.2912,3.2913,3.2909,3.2991,3.3005,3.3061,3.2964,3.2965,3.2966,0,3.2838,3.2851,3.29,3.2903,3.2911,3.2933,3.2946,3.2963,3.2969,3.2966,3.2975,3.296,3.2987,3.2956,3.2991,3.2967,3.2975,3.2975,3.2976,3.2976,3.2941,3.299,3.3079,3.3087,3.2979,3.2978,3.2977,0,3.2897,3.2927,3.296,3.2965,3.297,3.2986,3.2988,3.2993,3.3003,3.3015,3.302,3.3035,3.3043,3.3054,3.3043,3.3022,3.308,3.3049,3.3076,3.3076,3.3087,3.3086,3.3176,3.3097,3.3096,3.3096,3.3096,0,3.2968,3.2998,3.2986,3.3006,3.3039,3.3026,3.3059,3.3059,3.3063,3.3082,3.3063,3.3081,3.3067,3.3084,3.3076,3.3105,3.3109,3.3106,3.3103,3.3106,3.3106,3.311,3.3105,3.3099,3.3098,3.3098,3.3097,0,3.3039,3.3032,3.3066,3.3068,3.3069,3.3093,3.3094,3.3111,3.3108,3.3131,3.3136,3.313,3.3148,3.3139,3.3159,3.3153,3.319,3.3183,3.3188,3.3185,3.3212,3.3209,3.3305,3.3317,3.3232,3.3233,3.3234,0,3.3083,3.3106,3.311,3.3121,3.3125,3.3144,3.3153,3.3142,3.3153,3.3162,3.3178,3.3195,3.3207,3.3237,3.3234,3.3248,3.324,3.3273,3.3242,3.3244,3.3238,3.3236,3.3237,3.3278,3.3279,3.328,3.3281,0,3.3162,3.3157,3.3173,3.3187,3.3199,3.321,3.3219,3.3229,3.3217,3.3231,3.3249,3.3259,3.3278,3.3294,3.3307,3.3308,3.3292,3.3291,3.3298,3.33,3.3301,3.3298,3.3202,3.3288,3.3288,3.3287,3.3287,3.3286,3.3219,3.3237,3.3243,3.326,3.3266,3.3274,3.3291,3.3289,3.3304,3.3319,3.3311,3.3332,3.3337,3.3352,3.3356,3.3372,3.3359,3.3369,3.3371,3.3373,3.3376,3.33,3.3374,3.3374,3.3374,3.3374,3.3374,0,3.3294,3.3297,3.3313,3.3326,3.3339,3.3324,3.3333,3.3345,3.3364,3.337,3.3383,3.3403,3.3419,3.3417,3.3431,3.3444,3.3437,3.3448,3.3445,3.3446,3.3388,3.338,3.3453,3.3453,3.3453,3.3453,3.3453,3.3453,3.3335,3.3365,3.3361,3.3393,3.3395,3.3415,3.3422,3.3429,3.3434,3.3458,3.347,3.3469,3.3472,3.3486,3.3499,3.3498,3.3503,3.3516,3.3512,3.3458,3.345,3.3442,3.3434,3.3518,3.3518,3.3569,3.3569,3.3569]}]]